GFSFLT2_sfc_temp_126.txt.gz
Temp
69 70 72 71 70 71 71 71 72 72 72 72 73 72 72 73 73 74 74 73 73 73 72 72 72 72 71 70 68 69 68 67
68 68 69 69 70 69 70 70 70 71 71 71 71 71 72 72 72 73 73 73 73 73 71 71 71 71 70 69 68 69 68 67
67 68 68 68 69 70 70 70 70 70 70 70 68 70 70 71 71 71 72 71 71 71 71 70 70 69 69 68 68 67 67 67
67 67 67 67 69 69 69 70 71 69 69 69 69 71 68 70 70 69 70 69 70 70 70 69 69 68 67 68 67 67 67 67
68 67 66 67 67 67 70 71 71 71 70 69 70 72 71 70 68 68 68 69 69 69 69 68 68 67 66 66 66 66 66 66
67 67 66 66 66 67 68 69 69 69 70 71 71 70 69 71 71 71 68 68 70 70 70 70 69 67 66 66 66 66 66 66
65 66 67 66 66 65 65 66 68 69 68 69 69 68 68 70 70 71 70 68 70 70 70 69 69 69 66 66 66 66 66 66
60 62 68 69 68 67 66 65 66 66 66 68 69 69 69 69 69 69 69 67 68 69 70 69 69 69 68 67 66 66 66 66
58 59 62 62 62 61 62 65 66 65 66 65 67 69 67 68 67 68 67 67 67 67 68 69 68 69 67 68 67 66 66 66
55 57 55 55 55 55 56 57 58 60 62 63 64 65 66 66 66 66 66 67 67 67 67 67 67 66 67 67 67 66 66 66
51 51 51 52 53 54 53 54 54 55 56 56 58 59 59 62 65 66 66 65 66 67 67 67 66 66 66 66 66 66 66 66
49 49 48 49 51 51 51 51 52 53 52 53 53 54 56 56 60 62 62 62 63 64 65 66 66 67 66 65 65 65 64 65
46 46 45 46 46 45 46 45 48 49 49 51 51 51 52 52 53 56 59 60 61 62 63 64 64 65 63 62 62 63 63 64
44 44 44 43 43 44 43 44 46 47 47 48 48 48 49 51 50 52 55 56 58 62 61 61 61 63 61 59 59 59 61 62
42 42 42 42 41 42 42 44 44 44 43 44 45 47 48 48 49 50 51 52 54 56 58 61 61 62 63 61 55 55 57 60
41 43 42 42 40 38 37 36 36 39 40 42 43 45 46 47 47 48 48 49 51 53 57 58 60 59 61 63 63 59 55 54
40 40 40 39 39 37 35 34 35 38 38 39 41 43 44 45 46 45 45 46 47 49 50 53 57 58 61 62 62 60 60 56
41 39 38 38 38 38 37 36 36 36 38 39 41 42 42 44 44 43 44 45 45 47 48 48 51 55 58 61 61 60 58 58
38 37 36 38 38 38 38 38 38 37 38 39 39 40 41 43 44 44 45 47 48 48 48 48 48 48 52 56 63 63 63 61
36 35 35 36 37 37 39 39 38 38 39 39 39 40 41 43 44 44 44 46 46 47 47 48 48 48 49 52 59 62 63 62

GFSFLT2_sfc_temp_132.txt.gz
Temp
88 87 82 72 72 72 71 72 73 73 73 73 74 74 73 74 74 74 74 74 74 74 73 73 73 73 72 71 70 71 85 91
86 86 86 86 85 71 71 71 71 72 72 72 72 72 73 73 73 73 74 73 73 73 73 72 72 72 71 70 69 70 84 90
87 86 86 85 86 84 73 71 72 71 73 71 72 85 85 84 78 74 72 71 72 72 72 71 71 71 70 70 69 86 89 89
88 86 86 85 88 86 85 86 86 85 85 85 84 85 87 86 81 72 71 69 69 70 71 70 71 87 86 72 84 87 89 89
88 86 85 85 87 89 88 88 85 83 83 85 86 85 85 86 86 84 83 73 81 75 78 82 84 87 88 88 87 86 88 88
78 79 81 80 85 88 86 78 78 77 77 78 78 78 78 83 85 81 82 84 82 81 80 81 84 85 86 85 85 85 88 87
70 71 72 76 78 76 77 75 75 75 76 75 75 74 75 76 76 79 78 81 79 79 80 81 81 82 83 84 84 84 84 86
67 68 68 70 65 67 70 71 72 72 72 72 73 73 73 74 75 77 78 80 80 78 75 75 78 80 80 80 82 81 83 83
64 66 67 67 68 67 64 66 65 64 64 64 64 64 63 74 75 73 74 77 78 76 77 75 74 75 75 75 78 80 80 81
63 64 64 65 66 68 69 67 66 64 64 64 63 64 64 64 68 72 73 73 72 70 73 75 72 72 72 74 77 77 78 80
61 60 60 63 66 68 69 68 71 70 71 69 66 67 67 69 71 65 64 69 72 74 72 73 69 68 70 71 72 75 76 79
62 61 60 63 65 69 72 71 71 70 68 66 64 66 65 66 70 69 70 66 68 72 74 75 73 71 70 69 68 71 76 76
60 59 58 61 63 63 65 63 67 68 67 63 63 63 63 64 66 67 68 68 65 63 64 66 73 75 68 66 65 66 70 75
59 58 58 58 61 61 61 62 65 65 64 63 61 60 61 62 62 63 64 65 66 67 65 60 63 67 65 66 62 66 72 75
55 55 56 56 56 60 61 63 63 62 61 61 60 59 59 59 60 60 61 62 63 64 65 64 59 61 64 63 61 62 72 74
56 55 55 55 55 55 53 56 55 57 58 59 59 58 57 57 57 57 56 59 59 61 64 63 59 55 59 62 65 70 64 64
54 55 53 53 53 53 54 52 54 55 56 54 56 56 57 56 53 52 53 54 55 53 55 58 61 62 61 59 59 66 69 64
54 53 53 53 52 51 50 49 49 50 50 50 52 53 55 55 52 50 49 48 49 51 51 52 51 53 58 61 58 55 61 65
53 52 50 51 49 49 49 48 48 47 45 47 46 48 49 50 48 47 48 48 47 48 48 49 50 50 51 54 61 63 58 56
51 50 48 48 47 46 46 45 45 45 44 43 44 43 44 46 46 46 46 46 46 46 46 46 47 48 49 50 51 57 63 60

GFSFLT2_sfc_temp_135.txt.gz
Temp
92 90 80 73 73 73 73 74 74 74 74 74 75 74 74 74 74 75 75 74 75 75 74 74 74 73 73 71 71 71 81 89
91 90 89 86 83 72 72 72 72 73 73 73 73 74 74 73 73 73 73 74 73 74 74 73 73 72 72 71 70 71 81 87
92 89 90 88 89 83 73 72 72 72 73 72 73 83 85 83 78 75 73 72 72 73 72 72 72 72 71 71 70 83 87 88
91 90 89 90 92 89 87 88 86 84 85 85 83 85 87 88 82 73 72 71 71 71 71 71 71 83 81 71 80 85 88 90
82 81 84 88 91 93 92 92 91 83 83 82 85 81 82 87 87 80 82 73 82 78 79 80 79 81 84 82 85 85 88 91
76 77 76 76 83 81 86 85 78 80 79 80 80 79 79 81 79 79 79 79 79 82 84 82 81 84 85 86 86 87 90 91
71 73 73 75 74 71 75 76 76 73 73 73 74 75 76 78 77 79 79 79 80 79 79 80 81 82 82 82 83 85 86 88
70 71 70 73 72 69 69 68 67 67 66 65 65 64 64 68 75 76 77 76 78 78 79 80 79 77 77 78 82 84 83 81
67 68 69 70 72 72 71 69 68 65 64 64 65 64 63 64 66 72 74 74 75 74 72 75 77 77 75 76 77 80 79 78
68 68 67 68 69 72 72 72 70 68 67 67 65 66 67 65 66 68 67 65 70 69 67 66 67 70 70 75 77 77 77 77
66 66 66 67 69 72 73 72 70 70 72 70 67 68 68 69 72 74 72 71 69 71 71 71 71 71 68 71 75 75 75 80
67 65 64 67 69 70 72 71 72 73 70 68 66 67 66 67 71 70 71 73 73 70 68 70 73 73 73 73 75 75 74 74
64 62 62 65 67 66 67 66 69 70 70 67 66 64 64 65 67 67 69 69 68 69 71 66 65 71 65 67 72 74 72 74
62 62 61 61 64 65 65 66 68 69 68 67 65 63 63 64 62 63 65 65 65 67 67 67 67 68 61 62 61 70 71 71
62 62 61 60 60 63 63 65 66 65 64 65 63 63 62 61 61 61 60 61 62 63 64 64 64 68 65 59 58 59 67 75
61 61 60 60 59 60 58 59 58 60 61 62 61 62 61 61 59 58 57 58 57 59 63 60 61 61 66 67 63 62 59 63
60 61 59 59 58 57 57 55 57 59 58 56 58 59 59 60 57 55 54 54 54 53 54 55 56 56 59 63 65 65 63 61
59 59 58 57 56 55 54 52 52 52 52 52 54 55 56 55 53 51 49 50 50 50 50 50 50 51 53 56 58 59 61 63
58 57 54 55 54 53 52 51 50 50 49 48 47 48 49 48 47 46 47 47 47 47 47 47 48 48 49 49 53 57 63 65
56 55 53 52 51 51 51 50 49 49 47 46 46 44 45 45 45 45 45 46 46 45 45 45 46 47 47 48 49 51 54 59

GFSFLT2_sfc_temp_138.txt.gz
Temp
81 80 77 73 73 73 73 74 74 74 74 74 74 74 74 74 75 74 75 75 74 75 74 74 74 73 72 71 71 71 71 75
85 83 79 78 77 72 72 72 72 73 74 73 73 73 74 73 73 74 74 74 74 74 74 73 73 72 71 71 70 71 70 75
77 77 83 84 82 78 73 73 73 73 72 72 71 76 78 77 75 74 73 72 72 73 72 72 71 71 71 70 70 72 76 77
75 74 75 76 87 75 78 78 76 76 78 78 75 77 78 82 78 72 72 71 71 71 71 71 70 74 72 70 71 74 77 79
73 72 72 75 75 76 74 74 74 76 76 76 76 76 75 75 75 72 72 71 74 72 72 72 74 74 76 73 73 75 77 80
71 71 70 71 74 71 70 73 74 73 71 68 71 72 73 73 72 72 72 71 72 73 75 75 75 76 76 76 74 76 79 79
67 69 68 70 70 70 69 66 66 66 65 65 65 65 65 67 71 72 71 72 72 72 72 73 75 76 76 77 77 77 77 76
66 66 66 69 69 68 67 67 65 64 63 63 64 62 62 64 66 68 70 69 70 71 70 71 70 70 70 73 73 74 76 76
64 65 65 65 66 68 67 67 66 65 64 63 63 63 63 63 63 66 66 66 66 67 66 66 63 60 63 66 70 71 74 73
64 65 63 64 64 67 67 66 66 65 65 64 62 63 63 63 63 64 66 66 66 66 67 65 62 61 61 62 67 68 71 72
63 61 62 63 63 65 66 65 65 65 63 63 61 62 62 61 63 64 64 66 67 65 65 63 64 63 63 65 66 67 69 72
62 61 60 61 63 63 64 64 64 64 62 61 60 60 60 59 61 60 62 63 63 63 62 65 64 64 67 66 66 68 67 67
61 59 58 59 60 59 60 59 61 62 62 61 59 59 59 58 57 58 59 58 58 60 61 60 61 63 60 62 64 67 67 67
60 60 58 58 59 60 59 59 60 61 60 60 58 58 57 58 56 55 55 54 56 56 57 57 59 62 58 58 56 60 64 67
59 58 57 56 56 58 58 59 58 57 58 58 56 58 56 56 55 53 52 53 52 52 53 52 51 55 59 56 53 53 57 63
59 58 57 57 55 54 53 52 51 53 53 54 55 55 55 55 51 50 49 49 49 49 52 49 49 48 54 59 57 56 52 54
57 57 56 55 54 53 51 49 51 52 51 50 50 51 52 51 47 47 45 47 47 46 47 47 48 47 47 49 51 54 56 52
56 55 54 54 53 51 49 47 47 47 46 45 45 47 47 46 46 45 45 45 45 45 46 45 45 46 47 48 47 47 50 51
55 54 51 51 51 50 48 47 46 45 44 43 43 42 42 43 43 43 43 44 44 44 44 44 44 44 45 45 47 47 49 49
53 52 50 50 49 48 48 47 45 44 43 43 42 41 42 43 42 43 43 43 43 43 42 43 44 43 43 44 44 46 48 48

GFSFLT2_sfc_temp_141.txt.gz
Temp
73 73 74 74 73 73 73 73 73 73 73 74 74 73 73 74 74 74 74 74 74 74 74 73 73 72 72 71 70 70 69 70
71 74 74 72 71 71 71 72 72 72 73 73 72 72 72 73 73 73 73 73 73 73 73 73 72 72 71 70 69 69 68 68
70 69 71 71 74 74 71 72 72 72 72 72 71 71 72 71 71 72 72 72 72 72 72 71 71 71 70 70 69 68 68 71
66 67 68 70 76 71 72 73 71 71 71 72 71 70 71 76 72 69 71 70 71 71 71 70 69 71 70 69 69 69 70 73
64 65 66 67 68 67 67 69 70 70 66 67 70 71 71 71 70 70 70 69 71 71 72 71 70 70 71 69 70 69 71 73
62 62 63 64 66 66 66 66 66 64 63 63 63 63 64 65 66 68 68 68 69 69 70 73 71 72 71 70 69 70 72 73
58 60 60 63 62 62 62 64 64 62 60 62 62 62 62 62 62 65 67 66 66 67 67 67 69 71 67 64 64 64 70 71
58 58 59 61 61 61 60 60 63 64 63 61 62 61 60 62 64 64 65 64 66 67 67 64 63 64 63 64 63 65 70 70
57 58 58 58 59 61 60 60 61 63 62 61 61 60 60 60 61 63 61 63 65 65 64 65 63 63 62 63 64 66 68 68
56 58 56 56 57 58 60 59 59 58 57 57 57 59 59 59 59 58 61 62 61 61 62 64 63 61 61 61 62 65 68 68
53 53 54 54 56 57 57 57 57 56 56 57 56 58 58 56 56 56 57 58 58 58 58 58 60 63 62 60 61 63 65 68
54 54 53 53 53 55 56 55 55 55 55 55 54 55 56 54 54 54 55 54 55 55 55 57 56 59 64 64 64 64 65 65
52 51 51 51 50 50 51 50 52 54 55 55 54 54 54 52 52 51 51 51 52 53 53 52 54 55 55 58 60 62 63 65
51 50 50 49 49 49 49 49 50 51 53 52 53 53 52 51 48 48 48 47 48 48 48 47 49 52 49 52 52 57 59 62
50 49 48 48 48 48 48 48 48 48 48 48 49 50 47 46 46 45 44 45 44 44 44 45 43 46 47 48 48 49 53 58
49 49 48 49 47 45 43 42 41 43 44 45 46 47 46 45 44 43 43 43 43 44 46 46 45 42 46 50 49 49 49 49
46 47 47 46 45 44 41 40 41 42 42 41 42 43 44 44 43 42 42 44 44 44 44 44 45 44 44 45 44 46 49 48
45 46 45 45 44 43 41 39 39 39 38 38 39 40 41 42 43 43 43 43 42 42 43 44 43 44 44 45 44 43 44 45
45 45 44 44 43 42 41 40 39 38 37 36 37 37 38 38 40 40 41 42 42 42 41 41 42 41 42 42 43 44 46 46
44 44 43 43 42 42 41 40 39 38 36 36 37 37 38 38 38 39 40 40 39 40 40 40 41 40 40 40 41 42 44 44

GFSFLT2_sfc_temp_144.txt.gz
Temp
71 72 73 72 71 72 72 73 73 73 73 73 73 73 73 73 73 74 74 73 73 73 73 72 73 72 71 70 69 70 68 68
68 69 69 72 71 70 70 71 71 71 72 72 71 71 71 71 71 72 73 73 73 73 72 72 72 71 70 69 69 69 67 67
65 65 67 68 71 72 70 71 71 71 71 71 70 71 71 72 71 70 71 70 71 71 71 71 69 70 70 69 69 67 67 67
62 63 64 67 71 67 68 71 69 67 67 67 70 70 71 72 70 69 69 69 69 70 70 69 68 70 69 68 68 67 67 69
60 61 61 62 64 65 66 66 65 64 63 64 65 65 66 66 67 68 68 69 69 69 70 70 70 69 69 67 68 68 68 70
58 58 59 59 62 62 64 64 62 61 61 61 60 59 61 62 63 65 66 65 65 66 66 66 66 70 66 65 65 64 65 68
55 57 57 59 59 59 60 61 61 61 61 59 59 58 58 60 62 64 62 63 64 64 64 65 65 66 65 65 64 64 64 66
55 55 55 57 57 57 57 58 58 59 60 59 57 58 56 58 59 58 60 61 61 63 64 66 64 63 63 64 64 64 64 66
54 55 54 54 55 56 56 58 57 55 56 56 56 56 55 56 56 56 57 59 59 59 60 61 64 62 61 62 63 63 64 66
52 55 52 52 53 53 55 54 55 54 54 54 55 55 54 53 53 53 55 57 56 55 55 56 57 61 60 59 61 62 64 65
51 50 50 51 52 52 52 53 53 52 53 53 53 54 54 52 51 50 52 52 52 52 52 52 53 55 57 60 59 59 62 65
50 51 49 50 50 51 52 52 52 52 51 51 51 51 50 50 49 48 49 48 48 48 48 50 51 50 55 58 59 61 62 62
48 48 48 47 47 46 48 46 47 49 50 49 48 46 47 46 45 45 46 45 45 46 45 46 48 49 50 51 54 58 61 63
47 47 46 46 45 44 45 45 46 45 47 46 46 44 44 45 42 42 43 43 43 43 43 42 44 46 42 45 49 53 54 57
46 45 45 44 44 44 44 44 44 43 42 42 43 44 43 43 42 41 41 41 41 41 43 42 40 42 44 44 46 46 46 53
45 45 44 45 43 41 40 39 37 38 38 40 41 42 42 42 41 40 40 42 42 43 45 44 43 40 43 49 47 45 44 43
43 44 43 43 41 40 38 37 37 38 37 37 38 39 41 41 40 39 39 41 42 42 42 42 43 42 42 42 43 45 46 44
42 43 42 41 40 39 37 36 35 35 35 34 35 36 38 38 39 38 38 38 38 39 41 41 41 41 41 41 41 40 41 41
42 42 41 40 39 38 37 36 35 34 34 35 35 35 35 35 36 36 35 35 36 38 39 39 39 39 39 39 40 40 42 42
41 41 40 40 39 37 37 37 35 34 34 34 34 34 35 35 35 35 35 35 34 37 38 36 37 37 37 37 37 38 39 39

GFSFLT2_sfc_temp_147.txt.gz
Temp
67 68 69 70 70 71 70 72 72 73 73 73 73 72 72 73 73 73 73 73 73 73 72 72 72 71 71 70 69 69 67 67
65 66 67 69 71 69 69 70 70 70 70 70 70 70 71 71 71 71 72 72 72 72 71 70 71 69 69 68 68 69 67 66
62 62 64 66 70 70 70 69 68 68 68 68 69 69 69 70 69 69 69 69 69 70 70 70 70 68 68 68 67 67 66 66
58 60 61 64 69 67 68 67 64 62 64 66 65 66 67 69 68 68 68 68 69 68 68 68 68 69 69 68 68 68 67 67
56 57 58 60 62 63 65 63 60 60 60 61 62 62 63 64 65 66 65 66 65 66 66 67 67 67 69 67 66 66 67 69
55 55 57 57 59 60 62 60 58 58 59 59 58 58 58 60 62 61 61 63 64 65 64 65 65 66 66 64 64 64 64 65
53 54 54 56 57 57 57 59 58 60 59 58 58 58 57 57 56 56 56 58 59 62 62 65 65 66 64 65 64 65 66 66
52 52 53 55 55 55 55 55 53 54 56 56 56 56 55 54 54 54 54 55 56 56 56 58 63 64 64 62 63 63 64 64
52 52 52 52 53 54 53 54 53 52 52 53 53 53 51 51 51 50 51 53 53 55 54 55 56 60 61 61 62 62 62 63
50 54 51 51 51 51 53 51 51 50 50 50 51 51 51 49 48 47 49 50 50 49 49 50 52 53 53 56 59 61 63 62
48 49 49 49 50 51 50 49 49 49 49 48 48 47 48 47 46 45 47 47 46 46 46 46 47 48 50 53 56 58 59 63
48 48 49 49 50 50 49 48 47 47 46 45 45 45 45 44 44 43 45 44 44 44 43 45 46 45 50 52 54 57 59 59
46 46 46 46 45 45 44 42 43 44 44 44 43 43 43 41 41 41 42 42 41 43 42 42 43 44 44 46 49 54 55 59
45 44 44 44 43 42 43 42 42 41 42 42 42 42 42 43 40 40 40 40 40 40 40 39 40 43 38 41 47 50 50 52
43 42 42 42 42 42 42 42 40 39 38 39 40 41 41 40 40 39 39 39 38 39 40 38 38 39 41 42 41 43 43 49
42 42 42 42 41 40 38 36 34 35 35 36 38 40 39 40 39 38 38 38 38 39 41 39 40 38 41 46 45 43 40 39
40 41 40 40 39 38 37 35 34 35 35 35 36 37 38 38 38 36 36 36 36 36 38 38 40 40 39 40 39 41 44 41
40 41 39 38 38 37 35 33 33 33 33 32 33 35 35 36 36 35 34 34 34 35 38 39 37 38 39 39 38 37 37 38
40 39 38 38 37 36 35 33 33 32 32 32 32 32 33 33 34 33 33 33 34 35 33 34 33 33 34 34 37 37 38 37
40 39 38 38 37 36 35 35 33 33 33 32 32 32 32 33 32 32 33 33 33 33 32 32 31 31 29 31 33 33 35 35